Flag Island, MN

2:00 PM CDT on June 22, 2017 (GMT -0500)
Flag Island

Weather History for KFGN - December, 2013

Change the Weather History Date:

Monday, December 23, 2013

  Actual Average Record
Temperature  
Mean Temperature -14 °F -  
Max Temperature -7 °F 12 °F 35 °F (2005)
Min Temperature -22 °F 0 °F -25 °F (2004)
Degree Days  
Heating Degree Days 80    
Moisture  
Dew Point -22 °F    
Average Humidity 74    
Maximum Humidity 84    
Minimum Humidity 59    
Precipitation  
Precipitation 0.00 in - - ()
Sea Level Pressure  
Sea Level Pressure 30.43 in    
Wind  
Wind Speed 6 mph (NW)    
Max Wind Speed 9 mph    
Max Gust Speed -    
Visibility 10 miles    
Events      
Averages and records for this station are not official NWS values.
T = Trace of Precipitation, MM = Missing Value Source: NWS Daily Summary

Daily Weather History Graph

Daily Weather History Graph

Search for Another Location

Airport or City:

Trip Planner

Search our weather history database for the weather conditions in past years. The results will help you decide how hot, cold, wet, or windy it might be!

Date:

Astronomy

Dec. 23, 2013 Rise Set
Actual Time 8:13 AM CST 4:24 PM CST
Civil Twilight 7:35 AM CST 5:02 PM CST
Nautical Twilight 6:54 AM CST 5:43 PM CST
Astronomical Twilight 6:15 AM CST 6:21 PM CST
Moon 11:07 PM CST (12/23) 11:09 AM CST (12/23)
Length of Visible Light 9h 26m
Length of Day
8h 10m
Waning Gibbous, 68% of the Moon is Illuminated
Dec 23
Waning Gibbous
Dec 25
Last Quarter
Jan 1
New
Jan 7
First Quarter
Jan 15
Full

Hourly Weather History & Observations

Time (CST) Temp. Windchill Dew Point Humidity Pressure Visibility Wind Dir Wind Speed Gust Speed Precip Events Conditions
12:14 AM -13.0 °F -30.0 °F -18.4 °F 77% 30.38 in 10.0 mi North 8.1 mph - N/A   Clear
12:33 AM -13.0 °F -28.6 °F -18.4 °F 77% 30.38 in 10.0 mi North 6.9 mph - N/A   Clear
12:54 AM -14.8 °F -30.8 °F -18.4 °F 84% 30.38 in 10.0 mi North 6.9 mph - N/A   Clear
1:13 AM -14.8 °F -30.8 °F -20.2 °F 77% 30.38 in 10.0 mi NNW 6.9 mph - N/A   Clear
1:33 AM -14.8 °F -32.2 °F -20.2 °F 77% 30.39 in 10.0 mi NNW 8.1 mph - N/A   Clear
1:54 AM -16.6 °F -35.7 °F -20.2 °F 84% 30.40 in 10.0 mi NNW 9.2 mph - N/A   Clear
2:13 AM -16.6 °F -35.7 °F -20.2 °F 84% 30.41 in 10.0 mi NNW 9.2 mph - N/A   Clear
2:33 AM -16.6 °F -32.9 °F -20.2 °F 84% 30.41 in 10.0 mi NNW 6.9 mph - N/A   Clear
2:54 AM -16.6 °F -32.9 °F -20.2 °F 84% 30.41 in 10.0 mi North 6.9 mph - N/A   Clear
3:13 AM -16.6 °F -34.4 °F -22.0 °F 76% 30.42 in 10.0 mi NNW 8.1 mph - N/A   Clear
3:33 AM -16.6 °F -35.7 °F -22.0 °F 76% 30.42 in 10.0 mi NNW 9.2 mph - N/A   Clear
3:54 AM -16.6 °F -35.7 °F -22.0 °F 76% 30.43 in 10.0 mi NNW 9.2 mph - N/A   Clear
4:13 AM -16.6 °F -35.7 °F -22.0 °F 76% 30.43 in 10.0 mi NNW 9.2 mph - N/A   Clear
4:34 AM -16.6 °F -31.3 °F -23.8 °F 70% 30.43 in 10.0 mi North 5.8 mph - N/A   Clear
4:54 AM -16.6 °F -29.3 °F -23.8 °F 70% 30.44 in 10.0 mi NNW 4.6 mph - N/A   Clear
5:13 AM -18.4 °F -31.4 °F -23.8 °F 76% 30.44 in 10.0 mi NNW 4.6 mph - N/A   Clear
5:34 AM -18.4 °F -33.4 °F -23.8 °F 76% 30.44 in 10.0 mi NW 5.8 mph - N/A   Clear
5:54 AM -18.4 °F -33.4 °F -23.8 °F 76% 30.45 in 10.0 mi NW 5.8 mph - N/A   Clear
6:13 AM -18.4 °F -35.1 °F -23.8 °F 76% 30.45 in 10.0 mi NW 6.9 mph - N/A   Clear
6:34 AM -18.4 °F -36.6 °F -25.6 °F 70% 30.46 in 10.0 mi NW 8.1 mph - N/A   Clear
6:54 AM -20.2 °F -35.5 °F -25.6 °F 76% 30.46 in 10.0 mi NNW 5.8 mph - N/A   Clear
7:13 AM -20.2 °F -37.3 °F -25.6 °F 76% 30.47 in 10.0 mi NW 6.9 mph - N/A   Clear
7:34 AM -20.2 °F -35.5 °F -25.6 °F 76% 30.47 in 10.0 mi NNW 5.8 mph - N/A   Clear
7:53 AM -20.2 °F -37.3 °F -25.6 °F 76% 30.47 in 10.0 mi NNW 6.9 mph - N/A   Clear
8:14 AM -20.2 °F -38.8 °F -27.4 °F 69% 30.48 in 10.0 mi NW 8.1 mph - N/A   Clear
8:34 AM -22.0 °F -41.0 °F -27.4 °F 76% 30.48 in 10.0 mi NW 8.1 mph - N/A   Clear
8:53 AM -20.2 °F -37.3 °F -25.6 °F 76% 30.48 in 10.0 mi NW 6.9 mph - N/A   Clear
9:14 AM -20.2 °F -37.3 °F -27.4 °F 69% 30.49 in 10.0 mi NW 6.9 mph - N/A   Clear
9:34 AM -20.2 °F -38.8 °F -25.6 °F 76% 30.49 in 10.0 mi NW 8.1 mph - N/A   Clear
9:53 AM -20.2 °F -35.5 °F -25.6 °F 76% 30.50 in 10.0 mi NNW 5.8 mph - N/A   Clear
10:14 AM -18.4 °F -35.1 °F -25.6 °F 70% 30.50 in 10.0 mi NNW 6.9 mph - N/A   Clear
10:33 AM -18.4 °F -31.4 °F -23.8 °F 76% 30.50 in 10.0 mi NNW 4.6 mph - N/A   Clear
10:53 AM -16.6 °F -32.9 °F -23.8 °F 70% 30.50 in 10.0 mi NW 6.9 mph - N/A   Clear
11:14 AM -16.6 °F -31.3 °F -22.0 °F 76% 30.50 in 10.0 mi North 5.8 mph - N/A   Clear
11:33 AM -14.8 °F -24.8 °F -22.0 °F 70% 30.49 in 10.0 mi NW 3.5 mph - N/A   Clear
11:53 AM -14.8 °F -27.2 °F -22.0 °F 70% 30.48 in 10.0 mi NW 4.6 mph - N/A   Clear
12:14 PM -14.8 °F - -20.2 °F 77% 30.47 in 10.0 mi Calm Calm - N/A   Clear
12:33 PM -13.0 °F - -20.2 °F 70% 30.47 in 10.0 mi Calm Calm - N/A   Clear
12:53 PM -11.2 °F -20.6 °F -20.2 °F 64% 30.47 in 10.0 mi NW 3.5 mph - N/A   Clear
1:14 PM -11.2 °F - -20.2 °F 64% 30.47 in 10.0 mi Calm Calm - N/A   Clear
1:33 PM -9.4 °F - -20.2 °F 59% 30.46 in 10.0 mi Calm Calm - N/A   Clear
1:53 PM -9.4 °F -18.6 °F -18.4 °F 65% 30.45 in 10.0 mi NNE 3.5 mph - N/A   Clear
2:14 PM -9.4 °F - -18.4 °F 65% 30.45 in 10.0 mi Calm Calm - N/A   Clear
2:33 PM -9.4 °F - -18.4 °F 65% 30.45 in 10.0 mi Calm Calm - N/A   Clear
2:53 PM -7.6 °F - -18.4 °F 59% 30.45 in 10.0 mi Calm Calm - N/A   Clear
3:14 PM -9.4 °F -18.6 °F -18.4 °F 65% 30.44 in 10.0 mi South 3.5 mph - N/A   Clear
3:33 PM -11.2 °F - -18.4 °F 70% 30.45 in 10.0 mi Calm Calm - N/A   Clear
3:53 PM -11.2 °F -20.6 °F -18.4 °F 70% 30.45 in 10.0 mi South 3.5 mph - N/A   Clear
4:14 PM -13.0 °F -22.7 °F -18.4 °F 77% 30.44 in 10.0 mi SSE 3.5 mph - N/A   Clear
4:33 PM -14.8 °F - -18.4 °F 84% 30.44 in 10.0 mi Calm Calm - N/A   Clear
4:53 PM -14.8 °F -27.2 °F -18.4 °F 84% 30.45 in 10.0 mi SSW 4.6 mph - N/A   Clear
5:13 PM -11.2 °F -23.0 °F -20.2 °F 64% 30.44 in 10.0 mi SSE 4.6 mph - N/A   Clear
5:33 PM -14.8 °F -29.1 °F -20.2 °F 77% 30.43 in 10.0 mi SSE 5.8 mph - N/A   Clear
5:54 PM -16.6 °F -26.8 °F -20.2 °F 84% 30.43 in 10.0 mi SSE 3.5 mph - N/A   Clear
6:13 PM -16.6 °F -26.8 °F -22.0 °F 76% 30.43 in 10.0 mi SSE 3.5 mph - N/A   Clear
6:33 PM -16.6 °F -29.3 °F -22.0 °F 76% 30.42 in 10.0 mi SE 4.6 mph - N/A   Clear
6:54 PM -16.6 °F -26.8 °F -22.0 °F 76% 30.42 in 10.0 mi SSE 3.5 mph - N/A   Clear
7:13 PM -16.6 °F -26.8 °F -23.8 °F 70% 30.42 in 10.0 mi SSE 3.5 mph - N/A   Clear
7:33 PM -16.6 °F -26.8 °F -23.8 °F 70% 30.41 in 10.0 mi SSE 3.5 mph - N/A   Clear
7:54 PM -18.4 °F -31.4 °F -23.8 °F 76% 30.41 in 10.0 mi SE 4.6 mph - N/A   Clear
8:13 PM -16.6 °F -31.3 °F -23.8 °F 70% 30.40 in 10.0 mi SE 5.8 mph - N/A   Clear
8:34 PM -16.6 °F -32.9 °F -23.8 °F 70% 30.39 in 10.0 mi SSE 6.9 mph - N/A   Clear
8:54 PM -16.6 °F -34.4 °F -23.8 °F 70% 30.38 in 10.0 mi SSE 8.1 mph - N/A   Clear
9:13 PM -16.6 °F -34.4 °F -23.8 °F 70% 30.37 in 10.0 mi SSE 8.1 mph - N/A   Clear
9:34 PM -18.4 °F -36.6 °F -23.8 °F 76% 30.36 in 10.0 mi SE 8.1 mph - N/A   Clear
9:54 PM -18.4 °F -33.4 °F -23.8 °F 76% 30.35 in 10.0 mi SSE 5.8 mph - N/A   Clear
10:13 PM -18.4 °F -36.6 °F -23.8 °F 76% 30.34 in 10.0 mi SSE 8.1 mph - N/A   Clear
10:34 PM -18.4 °F -28.9 °F -23.8 °F 76% 30.35 in 10.0 mi South 3.5 mph - N/A   Clear
10:53 PM -18.4 °F -28.9 °F -23.8 °F 76% 30.34 in 10.0 mi SSE 3.5 mph - N/A   Clear
11:13 PM -18.4 °F -33.4 °F -23.8 °F 76% 30.34 in 10.0 mi SSE 5.8 mph - N/A   Clear
11:34 PM -18.4 °F -33.4 °F -23.8 °F 76% 30.34 in 10.0 mi SSE 5.8 mph - N/A   Clear
11:53 PM -16.6 °F -34.4 °F -23.8 °F 70% 30.32 in 10.0 mi SSE 8.1 mph - N/A   Clear